Change the Weather History Date:

Sunday, January 13, 2013

  Actual Average Record
Temperature  
Mean Temperature 8 °F -  
Max Temperature 14 °F 22 °F 42 °F (2002)
Min Temperature 3 °F 6 °F -13 °F (1998)
Degree Days  
Heating Degree Days 56    
Moisture  
Dew Point 1 °F    
Average Humidity 72    
Maximum Humidity 78    
Minimum Humidity 57    
Precipitation  
Precipitation 0.00 in - - ()
Sea Level Pressure  
Sea Level Pressure 30.11 in    
Wind  
Wind Speed 14 mph (WNW)    
Max Wind Speed 20 mph    
Max Gust Speed 25 mph    
Visibility 10 miles    
Events      
Averages and records for this station are not official NWS values.
T = Trace of Precipitation, MM = Missing Value Source: NWS Daily Summary

Daily Weather History Graph

Daily Weather History Graph

Search for Another Location

Airport or City:

Trip Planner

Search our weather history database for the weather conditions in past years. The results will help you decide how hot, cold, wet, or windy it might be!

Date:

Astronomy

Jan. 13, 2013 Rise Set
Actual Time 7:51 AM CST 5:06 PM CST
Civil Twilight 7:19 AM CST 5:38 PM CST
Nautical Twilight 6:43 AM CST 6:14 PM CST
Astronomical Twilight 6:09 AM CST 6:48 PM CST
Moon 8:44 AM CST (1/13) 7:52 PM CST (1/13)
Length of Visible Light 10h 19m
Length of Day
9h 15m
Waxing Crescent, 5% of the Moon is Illuminated
Jan 13
Waxing Crescent
Jan 18
First Quarter
Jan 26
Full
Feb 3
Last Quarter
Feb 10
New

Hourly Weather History & Observations

Time (CST) Temp. Windchill Dew Point Humidity Pressure Visibility Wind Dir Wind Speed Gust Speed Precip Events Conditions
12:13 AM 5.0 °F -14.2 °F -0.4 °F 78% 30.04 in 10.0 mi NW 17.3 mph 20.7 mph N/A   Overcast
12:33 AM 5.0 °F -13.0 °F -0.4 °F 78% 30.03 in 10.0 mi NNW 15.0 mph 21.9 mph N/A   Overcast
12:53 AM 5.0 °F -13.6 °F -0.4 °F 78% 30.03 in 10.0 mi NW 16.1 mph 20.7 mph N/A   Overcast
1:13 AM 5.0 °F -13.6 °F -2.2 °F 72% 30.03 in 10.0 mi NW 16.1 mph - N/A   Mostly Cloudy
1:33 AM 5.0 °F -11.6 °F -2.2 °F 72% 30.04 in 10.0 mi NW 12.7 mph - N/A   Clear
1:53 AM 3.2 °F -14.6 °F -2.2 °F 78% 30.04 in 10.0 mi NW 13.8 mph 19.6 mph N/A   Clear
2:13 AM 3.2 °F -14.6 °F -2.2 °F 78% 30.05 in 10.0 mi NW 13.8 mph - N/A   Clear
2:33 AM 3.2 °F -13.1 °F -2.2 °F 78% 30.06 in 10.0 mi NW 11.5 mph - N/A   Scattered Clouds
2:53 AM 5.0 °F -11.6 °F -2.2 °F 72% 30.05 in 10.0 mi NW 12.7 mph - N/A   Scattered Clouds
3:13 AM 5.0 °F -13.0 °F -0.4 °F 78% 30.04 in 10.0 mi NW 15.0 mph 21.9 mph N/A   Overcast
3:33 AM 5.0 °F -12.3 °F -0.4 °F 78% 30.04 in 10.0 mi NW 13.8 mph 19.6 mph N/A   Overcast
3:53 AM 5.0 °F -15.2 °F -0.4 °F 78% 30.03 in 10.0 mi NNW 19.6 mph - N/A   Overcast
4:13 AM 5.0 °F -13.6 °F -0.4 °F 78% 30.04 in 10.0 mi NW 16.1 mph - N/A   Overcast
4:32 AM 5.0 °F -14.2 °F -0.4 °F 78% 30.03 in 10.0 mi NW 17.3 mph 23.0 mph N/A   Overcast
4:53 AM 5.0 °F -13.6 °F -0.4 °F 78% 30.03 in 7.0 mi NW 16.1 mph - N/A   Overcast
5:13 AM 5.0 °F -13.6 °F -2.2 °F 72% 30.04 in 7.0 mi NW 16.1 mph 23.0 mph N/A   Overcast
5:32 AM 5.0 °F -14.7 °F -2.2 °F 72% 30.04 in 10.0 mi NW 18.4 mph - N/A   Overcast
5:53 AM 3.2 °F -17.1 °F -2.2 °F 78% 30.05 in 10.0 mi NW 18.4 mph - N/A   Overcast
6:13 AM 3.2 °F -14.6 °F -2.2 °F 78% 30.06 in 10.0 mi NNW 13.8 mph 25.3 mph N/A   Overcast
6:32 AM 3.2 °F -15.3 °F -4.0 °F 72% 30.06 in 10.0 mi NNW 15.0 mph 19.6 mph N/A   Overcast
6:53 AM 3.2 °F -15.3 °F -4.0 °F 72% 30.07 in 10.0 mi NNW 15.0 mph 21.9 mph N/A   Overcast
7:13 AM 3.2 °F -13.9 °F -4.0 °F 72% 30.08 in 10.0 mi NNW 12.7 mph - N/A   Overcast
7:32 AM 3.2 °F -12.2 °F -2.2 °F 78% 30.09 in 10.0 mi NNW 10.4 mph - N/A   Overcast
7:53 AM 3.2 °F -9.1 °F -2.2 °F 78% 30.11 in 10.0 mi NW 6.9 mph - N/A   Overcast
8:13 AM 3.2 °F -13.1 °F -2.2 °F 78% 30.12 in 10.0 mi NW 11.5 mph 16.1 mph N/A   Overcast
8:32 AM 5.0 °F -8.1 °F -2.2 °F 72% 30.12 in 7.0 mi NW 8.1 mph - N/A   Overcast
8:53 AM 5.0 °F -8.1 °F -0.4 °F 78% 30.13 in 7.0 mi WNW 8.1 mph - N/A   Overcast
9:13 AM 5.0 °F -10.8 °F -0.4 °F 78% 30.14 in 10.0 mi NW 11.5 mph - N/A   Overcast
9:33 AM 5.0 °F -10.0 °F -0.4 °F 78% 30.13 in 10.0 mi NNW 10.4 mph - N/A   Overcast
9:53 AM 5.0 °F -10.8 °F -0.4 °F 78% 30.12 in 10.0 mi NW 11.5 mph - N/A   Overcast
10:12 AM 5.0 °F -10.0 °F -0.4 °F 78% 30.12 in 10.0 mi NW 10.4 mph - N/A   Mostly Cloudy
10:33 AM 6.8 °F -8.6 °F -0.4 °F 72% 30.11 in 10.0 mi NW 11.5 mph 19.6 mph N/A   Scattered Clouds
10:53 AM 6.8 °F -8.6 °F -0.4 °F 72% 30.11 in 7.0 mi NW 11.5 mph - N/A   Mostly Cloudy
11:12 AM 8.6 °F -9.5 °F 1.4 °F 73% 30.10 in 10.0 mi NW 17.3 mph - N/A   Scattered Clouds
11:33 AM 8.6 °F -8.9 °F 1.4 °F 73% 30.10 in 10.0 mi WNW 16.1 mph - N/A   Scattered Clouds
11:53 AM 8.6 °F -8.9 °F 1.4 °F 73% 30.09 in 10.0 mi WNW 16.1 mph - N/A   Mostly Cloudy
12:12 PM 10.4 °F -6.6 °F 3.2 °F 73% 30.08 in 7.0 mi WNW 16.1 mph - N/A   Mostly Cloudy
12:33 PM 10.4 °F -6.0 °F 3.2 °F 73% 30.09 in 7.0 mi WNW 15.0 mph - N/A   Scattered Clouds
12:53 PM 12.2 °F -3.7 °F 3.2 °F 67% 30.09 in 10.0 mi WNW 15.0 mph 20.7 mph N/A   Scattered Clouds
1:12 PM 12.2 °F -3.7 °F 3.2 °F 67% 30.08 in 10.0 mi WNW 15.0 mph 21.9 mph N/A   Clear
1:33 PM 12.2 °F -4.8 °F 3.2 °F 67% 30.08 in 10.0 mi NW 17.3 mph - N/A   Scattered Clouds
1:53 PM 14.0 °F -0.8 °F 3.2 °F 62% 30.08 in 10.0 mi WNW 13.8 mph - N/A   Clear
2:12 PM 14.0 °F -2.0 °F 1.4 °F 57% 30.09 in 10.0 mi WNW 16.1 mph 21.9 mph N/A   Mostly Cloudy
2:33 PM 14.0 °F -0.8 °F 1.4 °F 57% 30.10 in 10.0 mi WNW 13.8 mph - N/A   Mostly Cloudy
2:53 PM 14.0 °F -0.8 °F 1.4 °F 57% 30.11 in 10.0 mi WNW 13.8 mph - N/A   Scattered Clouds
3:12 PM 14.0 °F -0.8 °F 3.2 °F 62% 30.11 in 10.0 mi West 13.8 mph - N/A   Clear
3:33 PM 14.0 °F -2.0 °F 3.2 °F 62% 30.12 in 10.0 mi West 16.1 mph 20.7 mph N/A   Clear
3:53 PM 12.2 °F -3.7 °F 3.2 °F 67% 30.13 in 10.0 mi WNW 15.0 mph 18.4 mph N/A   Scattered Clouds
4:13 PM 12.2 °F -3.1 °F 3.2 °F 67% 30.13 in 10.0 mi WNW 13.8 mph - N/A   Mostly Cloudy
4:33 PM 12.2 °F -3.7 °F 1.4 °F 62% 30.15 in 10.0 mi West 15.0 mph - N/A   Mostly Cloudy
4:53 PM 12.2 °F -2.5 °F 1.4 °F 62% 30.15 in 10.0 mi West 12.7 mph - N/A   Overcast
5:13 PM 12.2 °F -1.0 °F 1.4 °F 62% 30.16 in 10.0 mi West 10.4 mph - N/A   Scattered Clouds
5:33 PM 12.2 °F -0.2 °F 1.4 °F 62% 30.16 in 10.0 mi West 9.2 mph - N/A   Clear
5:52 PM 10.4 °F -2.4 °F 3.2 °F 73% 30.16 in 10.0 mi West 9.2 mph - N/A   Clear
6:13 PM 10.4 °F -0.4 °F 3.2 °F 73% 30.17 in 10.0 mi West 6.9 mph - N/A   Clear
6:33 PM 10.4 °F -2.4 °F 3.2 °F 73% 30.18 in 10.0 mi West 9.2 mph - N/A   Clear
6:52 PM 10.4 °F -2.4 °F 3.2 °F 73% 30.18 in 10.0 mi West 9.2 mph - N/A   Clear
7:13 PM 10.4 °F -1.5 °F 3.2 °F 73% 30.18 in 10.0 mi West 8.1 mph - N/A   Clear
7:33 PM 10.4 °F -1.5 °F 3.2 °F 73% 30.18 in 10.0 mi West 8.1 mph - N/A   Clear
7:52 PM 10.4 °F -4.1 °F 3.2 °F 73% 30.19 in 10.0 mi West 11.5 mph - N/A   Clear
8:13 PM 10.4 °F -3.3 °F 3.2 °F 73% 30.19 in 10.0 mi West 10.4 mph - N/A   Clear
8:33 PM 10.4 °F -3.3 °F 3.2 °F 73% 30.19 in 10.0 mi West 10.4 mph - N/A   Clear
8:52 PM 10.4 °F -4.1 °F 3.2 °F 73% 30.20 in 10.0 mi West 11.5 mph - N/A   Clear
9:13 PM 10.4 °F -4.8 °F 3.2 °F 73% 30.20 in 10.0 mi West 12.7 mph - N/A   Clear
9:33 PM 10.4 °F -4.8 °F 3.2 °F 73% 30.20 in 10.0 mi West 12.7 mph - N/A   Clear
9:52 PM 10.4 °F -4.8 °F 3.2 °F 73% 30.20 in 10.0 mi West 12.7 mph - N/A   Clear
10:13 PM 10.4 °F -3.3 °F 3.2 °F 73% 30.21 in 10.0 mi West 10.4 mph - N/A   Clear
10:33 PM 10.4 °F -2.4 °F 3.2 °F 73% 30.21 in 10.0 mi WSW 9.2 mph - N/A   Clear
10:53 PM 10.4 °F -1.5 °F 3.2 °F 73% 30.22 in 10.0 mi West 8.1 mph - N/A   Clear
11:32 PM 10.4 °F -1.5 °F 3.2 °F 73% 30.23 in 10.0 mi West 8.1 mph - N/A   Clear
11:53 PM 10.4 °F -3.3 °F 3.2 °F 73% 30.23 in 10.0 mi West 10.4 mph - N/A   Clear